Red Oak, IA

9:12 PM CST on December 16, 2017 (GMT -0600)
Red Oak Municipal

Weather History for KRDK - December, 2012

Change the Weather History Date:

Wednesday, December 12, 2012

  Actual Average Record
Temperature  
Mean Temperature 40 °F -  
Max Temperature 55 °F 38 °F 63 °F (1968)
Min Temperature 26 °F 19 °F -11 °F (1962)
Degree Days  
Heating Degree Days 24    
Moisture  
Dew Point 12 °F    
Average Humidity 39    
Maximum Humidity 69    
Minimum Humidity 12    
Precipitation  
Precipitation 0.00 in - - ()
Sea Level Pressure  
Sea Level Pressure 30.02 in    
Wind  
Wind Speed 9 mph (South)    
Max Wind Speed 28 mph    
Max Gust Speed 38 mph    
Visibility 10 miles    
Events      
Averages and records for this station are not official NWS values.
T = Trace of Precipitation, MM = Missing Value Source: NWS Daily Summary

Daily Weather History Graph

Daily Weather History Graph

Search for Another Location

Airport or City:

Trip Planner

Search our weather history database for the weather conditions in past years. The results will help you decide how hot, cold, wet, or windy it might be!

Date:

Astronomy

Dec. 12, 2012 Rise Set
Actual Time 7:37 AM CST 4:53 PM CST
Civil Twilight 7:06 AM CST 5:24 PM CST
Nautical Twilight 6:31 AM CST 5:58 PM CST
Astronomical Twilight 5:57 AM CST 6:32 PM CST
Moon 6:42 AM CST (12/12) 4:31 PM CST (12/12)
Length of Visible Light 10h 18m
Length of Day
9h 15m
Waning Crescent, 1% of the Moon is Illuminated
Dec 12
Waning Crescent
Dec 13
New
Dec 19
First Quarter
Dec 28
Full
Jan 4
Last Quarter

Hourly Weather History & Observations

Time (CST) Temp. Windchill Dew Point Humidity Pressure Visibility Wind Dir Wind Speed Gust Speed Precip Events Conditions
12:15 AM 28.4 °F - 17.6 °F 64% 30.03 in 10.0 mi Calm Calm - N/A   Clear
12:35 AM 28.4 °F 23.3 °F 17.6 °F 64% 30.03 in 10.0 mi South 4.6 mph - N/A   Clear
12:55 AM 28.4 °F 23.3 °F 17.6 °F 64% 30.03 in 10.0 mi South 4.6 mph - N/A   Clear
1:15 AM 28.4 °F 23.3 °F 17.6 °F 64% 30.03 in 10.0 mi South 4.6 mph - N/A   Clear
1:35 AM 28.4 °F 21.2 °F 19.4 °F 69% 30.03 in 10.0 mi South 6.9 mph - N/A   Clear
1:55 AM 28.4 °F 24.6 °F 17.6 °F 64% 30.03 in 10.0 mi South 3.5 mph - N/A   Clear
2:15 AM 28.4 °F - 17.6 °F 64% 30.03 in 10.0 mi Calm Calm - N/A   Clear
2:35 AM 26.6 °F - 17.6 °F 69% 30.03 in 10.0 mi Calm Calm - N/A   Clear
2:55 AM 26.6 °F 22.6 °F 17.6 °F 69% 30.03 in 10.0 mi South 3.5 mph - N/A   Clear
3:15 AM 28.4 °F 22.2 °F 17.6 °F 64% 30.03 in 10.0 mi South 5.8 mph - N/A   Clear
3:35 AM 28.4 °F 22.2 °F 17.6 °F 64% 30.03 in 10.0 mi South 5.8 mph - N/A   Clear
3:55 AM 26.6 °F - 17.6 °F 69% 30.03 in 10.0 mi Calm Calm - N/A   Clear
4:15 AM 26.6 °F - 17.6 °F 69% 30.03 in 10.0 mi Calm Calm - N/A   Clear
4:35 AM 28.4 °F - 17.6 °F 64% 30.03 in 10.0 mi Calm Calm - N/A   Clear
4:55 AM 26.6 °F 21.2 °F 17.6 °F 69% 30.03 in 10.0 mi South 4.6 mph - N/A   Clear
5:15 AM 28.4 °F 22.2 °F 17.6 °F 64% 30.03 in 10.0 mi South 5.8 mph - N/A   Clear
5:35 AM 26.6 °F 21.2 °F 17.6 °F 69% 30.03 in 10.0 mi South 4.6 mph - N/A   Clear
5:55 AM 26.6 °F 20.0 °F 17.6 °F 69% 30.03 in 10.0 mi SSE 5.8 mph - N/A   Clear
6:15 AM 28.4 °F 23.3 °F 17.6 °F 64% 30.03 in 10.0 mi South 4.6 mph - N/A   Clear
6:35 AM 28.4 °F 22.2 °F 17.6 °F 64% 30.03 in 10.0 mi South 5.8 mph - N/A   Clear
6:55 AM 28.4 °F 22.2 °F 17.6 °F 64% 30.03 in 10.0 mi South 5.8 mph - N/A   Clear
7:15 AM 28.4 °F 22.2 °F 17.6 °F 64% 30.04 in 10.0 mi South 5.8 mph - N/A   Clear
7:35 AM 28.4 °F 23.3 °F 17.6 °F 64% 30.04 in 10.0 mi South 4.6 mph - N/A   Clear
7:55 AM 28.4 °F 24.6 °F 17.6 °F 64% 30.04 in 10.0 mi South 3.5 mph - N/A   Clear
8:15 AM 30.2 °F 21.3 °F 17.6 °F 60% 30.04 in 10.0 mi South 10.4 mph - N/A   Clear
8:35 AM 32.0 °F 24.2 °F 19.4 °F 60% 30.05 in 10.0 mi South 9.2 mph - N/A   Clear
8:55 AM 33.8 °F 26.4 °F 19.4 °F 56% 30.06 in 10.0 mi South 9.2 mph - N/A   Clear
9:15 AM 35.6 °F 27.5 °F 19.4 °F 52% 30.06 in 10.0 mi South 11.5 mph 17.3 mph N/A   Clear
9:35 AM 37.4 °F 27.8 °F 19.4 °F 48% 30.06 in 10.0 mi South 17.3 mph 20.7 mph N/A   Clear
9:55 AM 39.2 °F 30.8 °F 19.4 °F 45% 30.06 in 10.0 mi South 15.0 mph - N/A   Clear
10:15 AM 41.0 °F 32.5 °F 19.4 °F 42% 30.06 in 10.0 mi South 17.3 mph 20.7 mph N/A   Clear
10:35 AM 44.6 °F 37.8 °F 17.6 °F 34% 30.05 in 10.0 mi South 15.0 mph - N/A   Clear
11:15 AM 46.4 °F 38.1 °F 12.2 °F 25% 30.05 in 10.0 mi SSW 24.2 mph 28.8 mph N/A   Clear
11:35 AM 48.2 °F - 12.2 °F 24% 30.04 in 10.0 mi SSW 20.7 mph 27.6 mph N/A   Clear
11:55 AM 50.0 °F - 12.2 °F 22% 30.03 in 10.0 mi SSW 19.6 mph 27.6 mph N/A   Clear
12:15 PM 51.8 °F - 10.4 °F 19% 30.03 in 10.0 mi South 20.7 mph 32.2 mph N/A   Clear
12:35 PM 53.6 °F - 6.8 °F 15% 30.02 in 10.0 mi SSW 23.0 mph 38.0 mph N/A   Clear
12:55 PM 53.6 °F - 6.8 °F 15% 30.02 in 10.0 mi SSW 27.6 mph 35.7 mph N/A   Clear
1:15 PM 53.6 °F - 6.8 °F 15% 30.01 in 10.0 mi SSW 20.7 mph 33.4 mph N/A   Clear
1:35 PM 53.6 °F - 3.2 °F 13% 30.00 in 10.0 mi SSW 23.0 mph 33.4 mph N/A   Clear
1:55 PM 55.4 °F - 3.2 °F 12% 30.00 in 10.0 mi SSW 23.0 mph 29.9 mph N/A   Clear
2:15 PM 55.4 °F - 5.0 °F 13% 29.99 in 10.0 mi South 20.7 mph 27.6 mph N/A   Clear
2:35 PM 53.6 °F - 5.0 °F 14% 29.99 in 10.0 mi South 21.9 mph 31.1 mph N/A   Clear
2:55 PM 53.6 °F - 3.2 °F 13% 29.98 in 10.0 mi South 19.6 mph 27.6 mph N/A   Clear
3:15 PM 53.6 °F - 3.2 °F 13% 29.97 in 10.0 mi South 23.0 mph 27.6 mph N/A   Clear
3:35 PM 53.6 °F - 3.2 °F 13% 29.97 in 10.0 mi South 20.7 mph 25.3 mph N/A   Clear
3:55 PM 53.6 °F - 3.2 °F 13% 29.98 in 10.0 mi South 19.6 mph 27.6 mph N/A   Clear
4:15 PM 51.8 °F - 3.2 °F 14% 29.97 in 10.0 mi South 17.3 mph 23.0 mph N/A   Clear
4:35 PM 51.8 °F - 5.0 °F 15% 29.98 in 10.0 mi South 15.0 mph 21.9 mph N/A   Clear
4:55 PM 48.2 °F - 6.8 °F 19% 29.98 in 10.0 mi South 17.3 mph 21.9 mph N/A   Clear
5:15 PM 48.2 °F - 6.8 °F 19% 29.99 in 10.0 mi South 13.8 mph 23.0 mph N/A   Clear
5:35 PM 48.2 °F - 6.8 °F 19% 29.98 in 10.0 mi South 17.3 mph 23.0 mph N/A   Clear
5:55 PM 46.4 °F 40.4 °F 6.8 °F 20% 29.98 in 10.0 mi South 13.8 mph - N/A   Clear
6:15 PM 46.4 °F 40.7 °F 6.8 °F 20% 29.98 in 10.0 mi South 12.7 mph - N/A   Clear
6:55 PM 44.6 °F 37.8 °F 6.8 °F 21% 29.99 in 10.0 mi South 15.0 mph 20.7 mph N/A   Clear
7:15 PM 44.6 °F 38.1 °F 6.8 °F 21% 30.01 in 10.0 mi South 13.8 mph 20.7 mph N/A   Clear
7:35 PM 42.8 °F 36.2 °F 6.8 °F 23% 30.02 in 10.0 mi South 12.7 mph 21.9 mph N/A   Clear
7:55 PM 42.8 °F 35.4 °F 6.8 °F 23% 30.02 in 10.0 mi South 15.0 mph 20.7 mph N/A   Clear
8:15 PM 42.8 °F 35.4 °F 6.8 °F 23% 30.03 in 10.0 mi South 15.0 mph - N/A   Clear
8:35 PM 42.8 °F 35.1 °F 6.8 °F 23% 30.02 in 10.0 mi South 16.1 mph 21.9 mph N/A   Clear
8:55 PM 42.8 °F 34.8 °F 6.8 °F 23% 30.02 in 10.0 mi South 17.3 mph - N/A   Clear
9:15 PM 42.8 °F 35.1 °F 6.8 °F 23% 30.03 in 10.0 mi South 16.1 mph 21.9 mph N/A   Clear
9:35 PM 42.8 °F 35.8 °F 6.8 °F 23% 30.03 in 10.0 mi South 13.8 mph 21.9 mph N/A   Clear
9:55 PM 42.8 °F 34.8 °F 6.8 °F 23% 30.03 in 10.0 mi South 17.3 mph 24.2 mph N/A   Clear
10:15 PM 41.0 °F 33.1 °F 6.8 °F 24% 30.03 in 10.0 mi South 15.0 mph - N/A   Clear
10:35 PM 41.0 °F 32.8 °F 6.8 °F 24% 30.03 in 10.0 mi South 16.1 mph - N/A   Clear
10:55 PM 41.0 °F 33.1 °F 6.8 °F 24% 30.03 in 10.0 mi South 15.0 mph 21.9 mph N/A   Clear
11:15 PM 41.0 °F 33.5 °F 6.8 °F 24% 30.04 in 10.0 mi South 13.8 mph - N/A   Clear
11:35 PM 41.0 °F 33.1 °F 8.6 °F 26% 30.03 in 10.0 mi South 15.0 mph 21.9 mph N/A   Clear
11:55 PM 39.2 °F 30.2 °F 8.6 °F 28% 30.03 in 10.0 mi South 17.3 mph - N/A   Clear